Regional Weather Roundup
Issued by NWS Midland/Odessa, TX

Skip options and go directly to product.
Home | Oldest Version | Previous Version | Current Version | All | Text Only | Save Text | Print | Product List | Glossary Off

Skip product version selection by date and time.   

861
ASUS44 KMAF 292310
RWRMAF
MIDLAND AREA WEATHER ROUNDUP
NATIONAL WEATHER SERVICE MIDLAND TX
600 PM CDT WED JUN 29 2016

...IN SOUTHWEST TEXAS AND SOUTHEAST NEW MEXICO...

CITY           SKY/WX    TMP DP  RH WIND       PRES   REMARKS
ALPINE         MOSUNNY   83  56  38 SE7       30.19F
ANDREWS        FAIR      94  55  26 E9G16     30.07S
ARTESIA        SUNNY     93  52  24 SE14      30.04F
BIG SPRING     SUNNY     90  56  31 E8        30.06F
CARLSBAD       SUNNY     93  54  26 SE10      30.03F
DRYDEN           N/A     94  59  31 NE7G21    29.98F
FORT STOCKTON  MOSUNNY   92  55  28 E13G21    30.04F
GUAD PASS      SUNNY     81  55  40 E12       30.22F
HOBBS          MOSUNNY   91  48  22 E8        30.09F
MARFA          SUNNY    N/A N/A N/A SW3       30.18F
MIDLAND AIRPK  SUNNY     93  54  27 E9        30.05F
MIDLAND INTL   SUNNY     93  56  28 E13G22    30.05F
ODESSA         SUNNY     92  56  29 E9        30.06F
PECOS          SUNNY     95  55  25 E9G21     30.00F
PRESIDIO       FAIR      95  56  26 NE15G23   30.00S
SEMINOLE       MOSUNNY   93  53  25 SE8       30.08F
SNYDER           N/A     89  63  41 NE3       30.05S
WINK           SUNNY     93  55  27 SE12G20   30.02F
$$
...OTHER STATIONS IN TEXAS...

CITY           SKY/WX    TMP DP  RH WIND       PRES   REMARKS
ABILENE        MOSUNNY   90  66  45 E10       30.01F
AMARILLO       MOSUNNY   94  53  25 S5        30.06F
AUSTIN         MOSUNNY   93  68  43 E7        29.92F
BROWNSVILLE    MOSUNNY   89  76  65 E13       29.91S HX 100
CORPUS CHRISTI CLOUDY    81  70  69 S8        29.91S THUNDER
DALLAS FTW     MOSUNNY   93  64  38 E8        29.96F
DEL RIO        SUNNY     97  63  32 VRB3      29.90F
EL PASO        MOSUNNY   94  45  18 SE12      30.04F
HOUSTON INT    MOSUNNY   88  75  65 NE14      29.90F
LUBBOCK        MOSUNNY   92  54  27 VRB6      30.06F
SAN ANGELO     SUNNY     91  65  41 NE6       30.01F
SAN ANTONIO    MOSUNNY   94  64  37 E9        29.93F
WACO           MOSUNNY   93  67  42 NE13      29.94F
WICHITA FALLS  NOT AVBL
$$
...OTHER LOCATIONS IN NEW MEXICO...

CITY           SKY/WX    TMP DP  RH WIND       PRES   REMARKS
ALAMAGORDO     SUNNY     93  48  21 S9        30.07F
ALBUQUERQUE    MOSUNNY   90  41  18 W12       30.15F
CANNON AFB     NOT AVBL
CLOVIS         SUNNY     90  55  31 S7        30.10F
HOLLOMAN AFB   SUNNY     94  49  21 SW6       30.04F
ROSWELL        SUNNY     96  46  18 E6        30.04F
RUIDOSO        LGT RAIN  81  41  24 S12       30.30F
SANTA FE       CLOUDY    90  35  14 N9        30.22F
TRUTH OR CONSE PTSUNNY   91  47  21 S8        30.10F
TUCUMCARI      SUNNY     95  43  16 VRB6      30.05F
$$

USA.gov is the U.S. government's official web portal to all federal, state and local government web resources and services.